Cosmos 292 Rocket - Orbit

View from above orbital plane
View from above orbital plane
View from above satellite
View from above satellite

Ground track
Ground track

The orbit data is extracted from the following two-line orbital elements,

1 04071U 69070B   13139.00730661  .00000670  00000-0  14176-3 0  4725
2 04071 074.0504 091.8974 0012971 091.9079 335.7229 14.61255436320077
Epoch (UTC): 19 May 2013 00:10:31
Eccentricity: 0.0012971
inclination: 74.0504°
perigee height: 680 km
apogee height: 698 km
right ascension of ascending node: 91.8974°
argument of perigee: 91.9079°
revolutions per day: 14.61255436
mean anomaly at epoch: 335.7229°
orbit number at epoch: 32007

The dashed part of the orbit path shows where the satellite is in the earth's shadow,  

Developed and maintained by Chris Peat, Heavens-Above GmbH. Please read the updated FAQ before sending e-mail. Imprint. DLR